Location: Buch
(50.1863°N, 11.0141°E)
Time: 10:13:32
(UTC+00:00)

CENTAUR R/B - Pass Details

Date: 18 January 2020
Orbit: 766 x 1422 km, 63.5° (Epoch: 07 February)

Event Time Altitude Azimuth Distance (km) Brightness Sun altitude
Exits shadow 06:03:33 - 314° (NW) 3,333 4.7 -10.0°
Reaches altitude 10° 06:03:53 10° 314° (NW) 3,226 4.6 -9.9°
Maximum altitude 06:11:45 67° 235° (SW) 1,462 3.3 -8.8°
Drops below altitude 10° 06:20:22 10° 155° (SSE) 3,507 6.2 -7.5°
Sets 06:23:22 0° 153° (SSE) 4,488 6.9 -7.0°
